{"data":{"norad_id":68817,"epoch":"2026-09-20T00:03:03.492864Z","epoch_age_seconds":83025,"freshness":"FRESH","line1":"1 68817U 26089R   26263.00212376  .00021637  00000+0  67045-3 0  9998","line2":"2 68817  97.2835 108.7854 0002606  84.4774 275.6765 15.33449845 23185","mean_motion":15.33449845,"eccentricity":0.0002606,"inclination_deg":97.2835,"raan_deg":108.7854,"arg_perigee_deg":84.4774,"mean_anomaly_deg":275.6765,"bstar":0.00067045,"rev_number":2318,"period_min":93.905907956188,"perigee_km":463.74529990798,"apogee_km":467.31221850168,"semimajor_km":6843.6657592048,"source":"CELESTRAK","updated_at":"2026-09-20T09:00:44.010075Z"}}